Fortuna, CA

3:18 AM PDT on August 28, 2016 (GMT -0700)
Rohnerville

Weather History for KFOT - May, 2013

Change the Weather History Date:

Saturday, May 25, 2013

  Actual Average (KEKA) Record (KEKA)
Temperature  
Mean Temperature 52 °F 55 °F  
Max Temperature 59 °F 61 °F 72 °F (1986)
Min Temperature 44 °F 49 °F 38 °F (1920)
Degree Days  
Heating Degree Days 14 10  
Month to date heating degree days 288  
Since 1 July heating degree days 4109  
Cooling Degree Days 0 0  
Month to date cooling degree days 0  
Year to date cooling degree days 0  
Growing Degree Days 2 (Base 50)    
Moisture  
Dew Point 47 °F    
Average Humidity 83    
Maximum Humidity 100    
Minimum Humidity 63    
Precipitation  
Precipitation 0.00 in 0.05 in 1.18 in (1960)
Month to date precipitation 1.50  
Year to date precipitation 22.25  
Snow  
Snow 0.00 in 0.00 in 0.00 in (2002)
Month to date snowfall 0.0  
Since 1 July snowfall 0.2  
Snow Depth -    
Sea Level Pressure  
Sea Level Pressure 30.09 in    
Wind  
Wind Speed 7 mph (NW)    
Max Wind Speed 16 mph    
Max Gust Speed 18 mph    
Visibility 10 miles    
Events      
T = Trace of Precipitation, MM = Missing Value Source: NWS Daily Summary

Daily Weather History Graph

Daily Weather History Graph

Search for Another Location

Airport or City:

Trip Planner

Search our weather history database for the weather conditions in past years. The results will help you decide how hot, cold, wet, or windy it might be!

Date:

Astronomy

May. 25, 2013 Rise Set
Actual Time 5:51 AM PDT 8:35 PM PDT
Civil Twilight 5:19 AM PDT 9:07 PM PDT
Nautical Twilight 4:39 AM PDT 9:48 PM PDT
Astronomical Twilight 3:54 AM PDT 10:33 PM PDT
Moon 9:29 PM PDT (5/25) 6:24 AM PDT (5/25)
Length of Visible Light 15h 48m
Length of Day
14h 44m
Waxing Gibbous, 99% of the Moon is Illuminated
May 25
Waxing Gibbous
May 31
Last Quarter
Jun 8
New
Jun 16
First Quarter
Jun 23
Full

Hourly Weather History & Observations

Time (PDT) Temp. Windchill Dew Point Humidity Pressure Visibility Wind Dir Wind Speed Gust Speed Precip Events Conditions
12:15 AM 44.6 °F 40.7 °F 44.6 °F 100% 30.11 in 10.0 mi NW 6.9 mph - N/A   Partly Cloudy
12:35 AM 44.6 °F 41.4 °F 44.6 °F 100% 30.11 in 10.0 mi WNW 5.8 mph - N/A   Clear
12:55 AM 44.6 °F 41.4 °F 44.6 °F 100% 30.11 in 10.0 mi WNW 5.8 mph - N/A   Clear
1:15 AM 44.6 °F 42.2 °F 44.6 °F 100% 30.11 in 10.0 mi West 4.6 mph - N/A   Clear
1:35 AM 44.6 °F 42.2 °F 44.6 °F 100% 30.11 in 10.0 mi WNW 4.6 mph - N/A   Partly Cloudy
1:55 AM 46.4 °F 43.5 °F 44.6 °F 93% 30.10 in 10.0 mi WNW 5.8 mph - N/A   Mostly Cloudy
2:15 AM 44.6 °F 41.4 °F 42.8 °F 93% 30.10 in 10.0 mi WNW 5.8 mph - N/A   Mostly Cloudy
2:35 AM 44.6 °F 42.2 °F 42.8 °F 93% 30.09 in 10.0 mi WNW 4.6 mph - N/A   Mostly Cloudy
2:55 AM 46.4 °F 44.3 °F 44.6 °F 93% 30.09 in 10.0 mi NW 4.6 mph - N/A   Overcast
3:15 AM 44.6 °F 42.2 °F 42.8 °F 93% 30.08 in 10.0 mi WNW 4.6 mph - N/A   Overcast
3:35 AM 44.6 °F 42.2 °F 42.8 °F 93% 30.08 in 10.0 mi NW 4.6 mph - N/A   Overcast
3:55 AM 46.4 °F 43.5 °F 44.6 °F 93% 30.08 in 10.0 mi WNW 5.8 mph - N/A   Overcast
4:15 AM 46.4 °F 43.5 °F 44.6 °F 93% 30.09 in 10.0 mi NW 5.8 mph - N/A   Overcast
4:35 AM 46.4 °F 45.2 °F 44.6 °F 93% 30.09 in 10.0 mi WNW 3.5 mph - N/A   Overcast
4:55 AM 46.4 °F 44.3 °F 44.6 °F 93% 30.09 in 10.0 mi WNW 4.6 mph - N/A   Overcast
5:15 AM 46.4 °F 44.3 °F 44.6 °F 93% 30.08 in 10.0 mi WNW 4.6 mph - N/A   Overcast
5:35 AM 46.4 °F 44.3 °F 44.6 °F 93% 30.08 in 10.0 mi NW 4.6 mph - N/A   Overcast
5:55 AM 46.4 °F 44.3 °F 44.6 °F 93% 30.08 in 10.0 mi NW 4.6 mph - N/A   Overcast
6:15 AM 46.4 °F 45.2 °F 44.6 °F 93% 30.09 in 10.0 mi WNW 3.5 mph - N/A   Overcast
6:35 AM 46.4 °F 45.2 °F 44.6 °F 93% 30.09 in 10.0 mi WNW 3.5 mph - N/A   Overcast
6:55 AM 48.2 °F - 44.6 °F 87% 30.09 in 10.0 mi NW 4.6 mph - N/A   Overcast
7:15 AM 48.2 °F - 44.6 °F 87% 30.10 in 10.0 mi WNW 4.6 mph - N/A   Overcast
7:35 AM 48.2 °F - 44.6 °F 87% 30.10 in 10.0 mi WNW 4.6 mph - N/A   Overcast
7:55 AM 48.2 °F - 44.6 °F 87% 30.11 in 8.0 mi NW 4.6 mph - N/A   Overcast
8:15 AM 48.2 °F - 46.4 °F 93% 30.11 in 7.0 mi NW 6.9 mph - N/A   Overcast
8:35 AM 48.2 °F - 46.4 °F 93% 30.11 in 5.0 mi NNW 4.6 mph - N/A   Overcast
8:55 AM 48.2 °F - 46.4 °F 93% 30.11 in 5.0 mi NNW 3.5 mph - N/A   Mostly Cloudy
9:15 AM 50.0 °F - 46.4 °F 87% 30.11 in 10.0 mi NNW 5.8 mph - N/A   Overcast
9:35 AM 50.0 °F - 46.4 °F 87% 30.10 in 10.0 mi NNW 6.9 mph - N/A   Overcast
9:55 AM 50.0 °F - 46.4 °F 87% 30.10 in 10.0 mi NNW 9.2 mph - N/A   Overcast
10:15 AM 51.8 °F - 46.4 °F 82% 30.10 in 10.0 mi NNW 9.2 mph - N/A   Overcast
10:35 AM 51.8 °F - 46.4 °F 82% 30.10 in 10.0 mi NNW 9.2 mph - N/A   Overcast
10:55 AM 53.6 °F - 46.4 °F 77% 30.10 in 10.0 mi NW 9.2 mph - N/A   Overcast
11:15 AM 55.4 °F - 46.4 °F 72% 30.10 in 10.0 mi NNW 8.1 mph - N/A   Mostly Cloudy
11:35 AM 55.4 °F - 46.4 °F 72% 30.10 in 10.0 mi West 10.4 mph - N/A   Mostly Cloudy
11:55 AM 55.4 °F - 46.4 °F 72% 30.10 in 10.0 mi WNW 9.2 mph - N/A   Scattered Clouds
12:15 PM 57.2 °F - 48.2 °F 72% 30.10 in 10.0 mi WNW 10.4 mph - N/A   Partly Cloudy
12:35 PM 57.2 °F - 48.2 °F 72% 30.10 in 10.0 mi WNW 11.5 mph - N/A   Clear
12:55 PM 57.2 °F - 48.2 °F 72% 30.10 in 10.0 mi WNW 13.8 mph - N/A   Clear
1:15 PM 57.2 °F - 48.2 °F 72% 30.09 in 10.0 mi WNW 12.7 mph - N/A   Clear
1:35 PM 57.2 °F - 48.2 °F 72% 30.09 in 10.0 mi WNW 11.5 mph 18.4 mph N/A   Clear
1:55 PM 59.0 °F - 48.2 °F 67% 30.09 in 10.0 mi WNW 12.7 mph 18.4 mph N/A   Clear
2:15 PM 57.2 °F - 48.2 °F 72% 30.09 in 10.0 mi WNW 16.1 mph - N/A   Clear
2:35 PM 57.2 °F - 48.2 °F 72% 30.09 in 10.0 mi NW 13.8 mph 18.4 mph N/A   Clear
2:55 PM 59.0 °F - 48.2 °F 67% 30.09 in 10.0 mi NW 12.7 mph - N/A   Clear
3:15 PM 57.2 °F - 48.2 °F 72% 30.09 in 10.0 mi WNW 12.7 mph - N/A   Clear
3:35 PM 59.0 °F - 46.4 °F 63% 30.09 in 10.0 mi WNW 13.8 mph 17.3 mph N/A   Clear
3:55 PM 59.0 °F - 46.4 °F 63% 30.09 in 10.0 mi NW 13.8 mph - N/A   Clear
4:15 PM 59.0 °F - 46.4 °F 63% 30.09 in 10.0 mi WNW 11.5 mph - N/A   Clear
4:35 PM 59.0 °F - 48.2 °F 67% 30.09 in 10.0 mi WNW 10.4 mph - N/A   Clear
4:55 PM 59.0 °F - 48.2 °F 67% 30.08 in 10.0 mi WNW 11.5 mph - N/A   Clear
5:15 PM 59.0 °F - 48.2 °F 67% 30.08 in 10.0 mi WNW 9.2 mph - N/A   Clear
5:35 PM 59.0 °F - 48.2 °F 67% 30.08 in 10.0 mi WNW 11.5 mph - N/A   Clear
5:55 PM 57.2 °F - 48.2 °F 72% 30.08 in 10.0 mi WNW 11.5 mph - N/A   Clear
6:15 PM 57.2 °F - 48.2 °F 72% 30.07 in 10.0 mi WNW 10.4 mph - N/A   Clear
6:35 PM 55.4 °F - 48.2 °F 77% 30.07 in 10.0 mi WNW 9.2 mph - N/A   Partly Cloudy
6:55 PM 55.4 °F - 48.2 °F 77% 30.07 in 10.0 mi WNW 8.1 mph - N/A   Partly Cloudy
7:15 PM 57.2 °F - 48.2 °F 72% 30.07 in 10.0 mi NW 9.2 mph - N/A   Clear
7:35 PM 55.4 °F - 48.2 °F 77% 30.07 in 10.0 mi NNW 6.9 mph - N/A   Scattered Clouds
7:55 PM 55.4 °F - 48.2 °F 77% 30.07 in 10.0 mi NNW 6.9 mph - N/A   Mostly Cloudy
8:15 PM 55.4 °F - 48.2 °F 77% 30.07 in 10.0 mi NW 4.6 mph - N/A   Overcast
8:35 PM 53.6 °F - 50.0 °F 88% 30.07 in 10.0 mi WNW 4.6 mph - N/A   Overcast
8:55 PM 53.6 °F - 50.0 °F 88% 30.07 in 10.0 mi NW 4.6 mph - N/A   Overcast
9:15 PM 53.6 °F - 50.0 °F 88% 30.07 in 10.0 mi NW 5.8 mph - N/A   Overcast
9:35 PM 53.6 °F - 50.0 °F 88% 30.08 in 10.0 mi NW 4.6 mph - N/A   Overcast
9:55 PM 53.6 °F - 50.0 °F 88% 30.08 in 10.0 mi North 3.5 mph - N/A   Overcast
10:15 PM 53.6 °F - 50.0 °F 88% 30.09 in 10.0 mi NE 3.5 mph - N/A   Overcast
10:35 PM 53.6 °F - 50.0 °F 88% 30.09 in 10.0 mi NNE 3.5 mph - N/A   Overcast
10:55 PM 53.6 °F - 50.0 °F 88% 30.09 in 8.0 mi Calm Calm - N/A   Overcast
11:15 PM 53.6 °F - 50.0 °F 88% 30.08 in 7.0 mi Calm Calm - N/A   Overcast
11:35 PM 53.6 °F - 50.0 °F 88% 30.09 in 10.0 mi Calm Calm - N/A   Overcast
11:55 PM 53.6 °F - 50.0 °F 88% 30.08 in 10.0 mi Calm Calm - N/A   Overcast